Overview Statistics Trail Chart Weather Telemetry Raw packets
 

This is the latest recevied weather packets stored in our database for station/object KH6DH-13. If no packets are shown the sender has not sent any weather packets the latest 10 day(s).

<< 15 16 17 18 19 20 21 >>
Time Temp. Humidity Pressure Rain* Wind** Luminosity Snow
1788434078 25° C - - 0.25 mm 3.13 m/s, 90° - -
1788433477 25° C - - 0.25 mm 2.24 m/s, 21° - -
1788432876 25.56° C - - 0.25 mm 3.13 m/s, 60° - -
1788432275 25.56° C - - 0.25 mm 3.58 m/s, 80° - -
1788431674 25.56° C - - 0.25 mm 2.68 m/s, 27° - -
1788431073 25.56° C - - 0 mm 2.24 m/s, 285° - -
1788430472 25.56° C - - 0 mm 1.34 m/s, 6° - -
1788429871 25.56° C - - 0 mm 1.79 m/s, 315° - -
1788429270 26.11° C - - 0 mm 0.89 m/s, 117° - -
1788428669 26.11° C - - 0 mm 1.34 m/s, 35° - -
1788428068 26.67° C - - 0 mm 2.24 m/s, 6° - -
1788427465 26.11° C - - 0 mm 2.24 m/s, 138° - -
1788426860 26.11° C - - 0 mm 2.24 m/s, 201° - -
1788426259 26.67° C - - 0 mm 2.68 m/s, 93° - -
1788425658 26.11° C - - 0 mm 1.34 m/s, 335° - -
1788425057 26.11° C - - 0 mm 2.68 m/s, 98° - -
1788424456 26.11° C - - 0 mm 3.58 m/s, 132° - -
1788423855 26.11° C - - 0 mm 2.24 m/s, 0° - -
1788423254 26.67° C - - 0 mm 2.24 m/s, 124° - -
1788422653 26.11° C - - 0 mm 1.34 m/s, 359° - -
1788422052 26.67° C - - 0 mm 2.68 m/s, 11° - -
1788421451 26.67° C - - 0 mm 1.34 m/s, 97° - -
1788420850 26.11° C - - 0 mm 0.45 m/s, 138° - -
1788420249 26.67° C - - 0 mm 2.24 m/s, 131° - -
1788419648 26.67° C - - 0 mm 1.34 m/s, 91° - -

* Rain latest hour (hover to see other rain measurements)
** Current wind speed in m/s (hover to see current wind gust speed)